This is the latest recevied weather packets stored in our database for station/object K4CRS-13. If no packets are shown the sender has not sent any weather packets the latest 10 day(s).
| Time | Temp. | Humidity | Pressure | Rain* | Wind** | Luminosity | Snow |
|---|---|---|---|---|---|---|---|
| 1777316320 | 27.78° C | 62% | 1050 hPa | 0 mm | - | 643 W/m² | - |
| 1777316018 | 27.78° C | 62% | 1049.9 hPa | 0 mm | - | 382 W/m² | - |
| 1777315717 | 27.78° C | 62% | 1050.3 hPa | 0 mm | - | 338 W/m² | - |
| 1777315414 | 27.78° C | 63% | 1049.9 hPa | 0 mm | - | 454 W/m² | - |
| 1777315112 | 27.78° C | 63% | 1050.1 hPa | 0 mm | - | 350 W/m² | - |
| 1777314807 | 27.78° C | 62% | 1050.1 hPa | 0 mm | - | 298 W/m² | - |
| 1777314504 | 27.78° C | 62% | 1050 hPa | 0 mm | - | 362 W/m² | - |
| 1777314200 | 27.78° C | 62% | 1049.6 hPa | 0 mm | - | 381 W/m² | - |
| 1777313899 | 28.33° C | 61% | 1049.9 hPa | 0 mm | - | 328 W/m² | - |
| 1777313595 | 28.89° C | 59% | 1049.9 hPa | 0 mm | - | 754 W/m² | - |
| 1777313294 | 28.33° C | 58% | 1049.9 hPa | 0 mm | - | 852 W/m² | - |
| 1777312989 | 28.33° C | 60% | 1049.8 hPa | 0 mm | - | 864 W/m² | - |
| 1777312686 | 28.89° C | 59% | 1050.1 hPa | 0 mm | - | 268 W/m² | - |
| 1777312382 | 28.89° C | 60% | 1049.7 hPa | 0 mm | - | 581 W/m² | - |
| 1777312080 | 28.89° C | 59% | 1049.8 hPa | 0 mm | - | 819 W/m² | - |
| 1777311777 | 28.33° C | 59% | 1050 hPa | 0 mm | - | 811 W/m² | - |
| 1777311474 | 28.89° C | 58% | 1050 hPa | 0 mm | - | 791 W/m² | - |
| 1777311171 | 28.89° C | 59% | 1050.1 hPa | 0 mm | - | 790 W/m² | - |
| 1777310869 | 28.89° C | 59% | 1050 hPa | 0 mm | - | 790 W/m² | - |
| 1777310567 | 28.89° C | 58% | 1050 hPa | 0 mm | - | 791 W/m² | - |
| 1777310263 | 28.33° C | 61% | 1050.5 hPa | 0 mm | - | 789 W/m² | - |
| 1777309961 | 27.78° C | 62% | 1050.5 hPa | 0 mm | - | 797 W/m² | - |
| 1777309659 | 27.78° C | 60% | 1050.4 hPa | 0 mm | - | 782 W/m² | - |
| 1777309355 | 27.78° C | 61% | 1050.4 hPa | 0 mm | - | 807 W/m² | - |
| 1777309054 | 27.78° C | 62% | 1050.4 hPa | 0 mm | - | 790 W/m² | - |
* Rain latest hour (hover to see other rain measurements)
** Current wind speed in m/s (hover to see current wind gust speed)